Simultaneous Nadir Overpasses (SNOs) Predictions

Prediction of SNOs between GOES-15 and METOP-C Satellite Orbit:

Table of predicted SNOs for the next 14.0 days since TLE Epoch: 3/21/2025
Index Date Time (GOES-15) GOES-15 Lat,Lon METOP-C Lat,Lon Distance(km) Time Diff (sec)
1 03/22/2025 17:45:16 0.08, 61.25 -0.88, 56.87 499.68 80
2 03/23/2025 17:21:56 0.08, 61.26 0.23, 61.86 68.83 80
3 03/25/2025 05:40:47 -0.09, 61.31 0.78, 57.30 457.03 80
4 03/26/2025 05:22:47 -0.08, 61.32 -0.28, 62.30 111.76 80
5 03/27/2025 17:41:47 0.09, 61.28 -0.72, 57.70 408.24 80
6 03/28/2025 17:18:28 0.08, 61.29 0.41, 62.69 160.14 80
7 03/30/2025 05:37:18 -0.09, 61.35 0.65, 58.14 366.47 80
8 03/31/2025 05:19:19 -0.09, 61.36 -0.49, 63.13 201.83 80
9 04/01/2025 17:38:18 0.10, 61.33 -0.54, 58.53 318.76 80
10 04/02/2025 17:14:58 0.10, 61.34 0.61, 63.52 248.77 80
11 04/04/2025 05:33:49 -0.11, 61.42 0.43, 58.97 279.48 80
